Location: Casone le Fosse
(44.6547°N, 12.1103°E)
Time: 03:14:54
(UTC+00:00)

NOSS 3-3 (C) - Pass Details

Date: 29 October 2020
Orbit: 827 x 1385 km, 63.5° (Epoch: 29 November)

Event Time Altitude Azimuth Distance (km) Brightness Sun altitude
Rises 18:03:34 0° 224° (SW) 3,413 7.5 -21.7°
Reaches altitude 10° 18:05:56 10° 227° (SW) 2,521 6.7 -22.2°
Maximum altitude 18:11:44 70° 311° (NW) 1,003 4.1 -23.2°
Enters shadow 18:16:18 21° 31° (NNE) 2,117 5.5 -24.0°
